Regional Weather Roundup
Issued by NWS

Home | Current Version | Previous Version | Text Only | Print | Product List | Glossary On
Versions: 1 2 3 4 5 6 7 8 9 10 11 12 13 14 15 16 17 18 19 20 21 22 23 24 25 26 27 28 29 30 31 32 33 34 35 36 37 38 39 40 41 42 43 44 45 46 47 48 49 50
000
ASUS44 KOUN 270710
RWROK

WEATHER ROUNDUP FOR OKLAHOMA
NATIONAL WEATHER SERVICE NORMAN OK
200 AM CDT WED MAY 27 2015

NOTE: "FAIR" INDICATES FEW OR NO CLOUDS BELOW 12,000 FEET WITH NO
      SIGNIFICANT WEATHER AND/OR OBSTRUCTIONS TO VISIBILITY.

OKZ001>007-009>012-014-015-017-270800-
NORTHWEST OKLAHOMA AND THE PANHANDLE

CITY           SKY/WX    TMP DP  RH WIND       PRES   REMARKS
GAGE           MOCLDY    62  56  80 SE3       30.02R
GUYMON         CLOUDY    62  57  83 E3        30.02S
ENID/WOODRING  PTCLDY    61  59  94 CALM      29.97S
$$

OKZ016-021>023-033>039-044-045-270800-
SOUTHWEST OKLAHOMA

CITY           SKY/WX    TMP DP  RH WIND       PRES   REMARKS
LAWTON/REGL    MOCLDY    66  62  87 W5        29.96R
LAWTON/FT SILL MOCLDY    67  62  84 W8        29.94S
FREDERICK      PTCLDY    64  60  87 SW9       29.94R
CLINTON        PTCLDY    63  59  87 S7        30.00F
HOBART         PTCLDY    64  60  87 SW10      29.98S
ALTUS AFB      CLEAR     61  60  95 CALM      29.97R
$$

OKZ018>020-024>031-270800-
CENTRAL OKLAHOMA

CITY           SKY/WX    TMP DP  RH WIND       PRES   REMARKS
OKLAHOMA CITY  MOCLDY    67  64  90 CALM      29.99S
OKC/WILEY POST PTCLDY    67  64  90 SE3       29.98F
OKC/TINKER AFB MOCLDY    65  63  94 SE6       29.99R
STILLWATER     CLOUDY    62  59  90 W7        29.95S
GUTHRIE        PTCLDY    64  62  93 CALM      29.97F
$$

OKZ008-013-054>072-270800-
NORTHEAST OKLAHOMA

CITY           SKY/WX    TMP DP  RH WIND       PRES   REMARKS
TULSA          CLOUDY    68  60  75 S7        29.98S
TULSA/JONES    CLOUDY    66  61  84 N6        30.00R
PONCA CITY     MOCLDY    63  58  83 CALM      29.96F
BARTLESVILLE   CLOUDY    64  64 100 SE3       29.98S
MUSKOGEE       CLOUDY    64  59  83 SE9       30.03F
$$

OKZ032-040>043-046>053-073>077-270800-
SOUTH CENTRAL/SOUTHEAST OKLAHOMA

CITY           SKY/WX    TMP DP  RH WIND       PRES   REMARKS
ARDMORE/DWNTWN CLOUDY    66  59  77 SE3       29.99R
MCALESTER      CLOUDY    73  69  87 SE7       29.99F
$$



USA.gov is the U.S. government's official web portal to all federal, state and local government web resources and services.